Location: Stockholm
(59.3330°N, 18.0500°E)
Time: 04:21:09
(UTC+02:00)

NOAA 18 - Pass Details

Date: 09 April 2023
Orbit: 838 x 860 km, 98.9° (Epoch: 31 May)

Event Time Altitude Azimuth Distance (km) Brightness Sun altitude
Exits shadow 23:09:28 22° 205° (SSW) 1,814 6.6 -20.0°
Maximum altitude 23:12:40 41° 263° (W) 1,232 6.2 -20.2°
Drops below altitude 10° 23:17:56 10° 333° (NNW) 2,508 8.9 -20.5°
Sets 23:20:28 0° 341° (NNW) 3,446 10.0 -20.6°
